Date,TemperatureHighF,TemperatureAvgF,TemperatureLowF,DewpointHighF,DewpointAvgF,DewpointLowF,HumidityHigh,HumidityAvg,HumidityLow,PressureMaxIn,PressureMinIn,WindSpeedMaxMPH,WindSpeedAvgMPH,GustSpeedMaxMPH,PrecipitationSumIn
2013-2-1,90.1,55.0,36.9,31.4,12.9,2.3,31,19,11,27.11,26.52,6,1,6,0.00
2013-2-2,71.6,55.2,44.6,19.9,11.7,5.9,22,18,14,27.14,27.02,6,1,6,0.00
2013-2-3,90.5,56.8,44.4,30.0,18.8,5.8,51,25,10,27.05,26.87,8,1,8,0.00
2013-2-4,97.0,56.3,41.4,33.6,12.3,4.3,21,18,11,26.99,26.87,8,1,8,0.00
2013-2-5,90.3,55.0,36.9,32.1,12.7,-1.6,30,19,11,26.93,26.75,8,2,8,0.00
2013-2-6,98.4,54.3,38.8,34.3,15.9,-0.8,49,24,11,26.93,26.81,10,2,10,0.00
2013-2-7,72.1,50.7,34.7,24.5,12.4,-2.7,42,23,14,26.93,26.73,15,4,15,0.00
2013-2-8,49.8,38.7,33.1,29.6,15.4,4.1,82,43,19,26.75,26.64,15,5,15,0.00
2013-2-9,59.0,40.3,29.7,17.3,9.9,2.9,46,30,17,26.87,26.67,12,5,12,0.00
2013-2-10,74.3,43.4,31.5,21.0,12.9,3.2,47,31,14,26.87,26.75,9,3,9,0.00
2013-2-11,78.3,43.5,30.7,21.5,9.6,-3.0,63,27,13,27.02,26.84,10,2,10,0.00
2013-2-12,83.3,45.7,27.7,24.5,4.5,-7.5,21,18,11,27.14,27.02,8,1,8,0.00
2013-2-13,94.6,50.9,29.1,32.3,8.0,-7.0,21,18,9,27.11,26.96,8,1,8,0.00
2013-2-14,93.2,53.7,36.0,31.9,10.0,-2.4,22,18,11,27.11,26.99,12,2,12,0.00
2013-2-15,93.2,55.5,37.6,32.3,11.6,-1.0,21,18,11,27.17,27.05,15,2,15,0.00
2013-2-16,111.9,58.0,37.2,36.6,12.4,-1.3,21,17,8,27.14,26.81,6,1,6,0.00
2013-2-17,87.3,55.6,37.0,29.3,11.4,-1.5,21,17,11,26.87,26.73,12,4,12,0.00
2013-2-18,78.3,53.3,34.2,27.3,12.7,0.9,54,21,13,26.87,26.69,14,4,14,0.00
2013-2-19,54.9,42.5,32.2,29.6,16.1,6.1,85,37,18,26.73,26.46,16,6,16,0.00
2013-2-20,65.3,39.3,28.9,28.9,13.5,-2.7,89,43,16,26.75,26.40,16,6,16,0.00
2013-2-21,81.0,45.3,33.3,23.5,12.1,-2.5,62,30,12,26.90,26.75,10,2,10,0.00
2013-2-22,98.4,50.5,31.1,34.7,9.5,-3.7,33,20,9,26.90,26.25,7,1,7,0.00
2013-2-23,75.7,50.4,37.6,21.4,9.0,-1.0,26,19,13,26.90,25.99,17,5,17,0.00
2013-2-24,84.7,46.6,32.4,24.4,5.3,-4.3,21,18,11,27.05,26.87,15,5,15,0.00
2013-2-25,95.4,51.9,29.5,31.9,8.5,-6.7,20,18,9,27.05,26.84,13,2,13,0.00
2013-2-26,94.6,53.0,34.5,32.9,9.7,-2.7,21,18,11,27.02,26.84,10,3,10,0.00
2013-2-27,93.2,51.5,33.1,32.3,8.5,-3.7,21,18,10,27.17,26.99,11,2,11,0.00
2013-2-28,103.3,56.2,32.7,34.9,11.1,-4.0,21,17,9,27.20,27.11,8,1,8,0.00